Location: Wellington
(41.3000°S, 174.7830°E)
Time: 16:17:49
(UTC+13:00)

ISS - Visible Passes

Search period start: 05 October 2023 00:00
Search period end: 15 October 2023 00:00
Orbit: 413 x 421 km, 51.6° (Epoch: 04 October)

Date Brightness Start Highest point End Pass type
(mag) Time Alt. Az. Time Alt. Az. Time Alt. Az.
05 Oct -1.1 04:40:53 14° SSW 04:41:51 15° S 04:43:59 10° SE visible
05 Oct -2.0 06:16:15 10° SW 06:19:25 32° SSE 06:22:33 10° E visible
06 Oct -0.5 03:54:33 13° SSE 03:54:33 13° SSE 03:55:26 10° SE visible
06 Oct -1.5 05:28:10 10° SW 05:31:04 24° SSE 05:33:57 10° ESE visible
07 Oct -1.2 04:41:10 15° SSW 04:42:38 19° SSE 04:45:14 10° ESE visible
07 Oct -3.5 06:16:25 10° SW 06:19:52 74° SE 06:23:17 10° ENE visible
08 Oct -0.7 03:54:58 16° SSE 03:54:58 16° SSE 03:56:28 10° SE visible
08 Oct -2.7 05:28:13 10° SW 05:31:33 46° SSE 05:34:52 10° ENE visible
09 Oct -2.0 04:41:48 23° SSW 04:43:09 31° SSE 04:46:16 10° E visible
10 Oct -0.9 03:55:54 19° SE 03:55:54 19° SE 03:57:30 10° ESE visible
10 Oct -3.8 05:28:51 14° WSW 05:31:42 69° NW 05:35:05 10° NE visible
11 Oct -3.5 04:43:13 69° SSE 04:43:19 70° SSE 04:46:44 10° ENE visible
12 Oct -0.6 03:57:56 11° ENE 03:57:56 11° ENE 03:58:09 10° ENE visible
12 Oct -2.6 05:30:56 23° WNW 05:31:27 24° NW 05:34:16 10° N visible
12 Oct -1.5 20:35:50 10° NNE 20:36:15 11° NNE 20:36:15 11° NNE visible
13 Oct -1.2 04:46:04 12° NNE 04:46:04 12° NNE 04:46:22 10° NNE visible
13 Oct -3.3 21:21:57 10° NW 21:24:41 49° NNW 21:24:41 49° NNW visible
14 Oct -3.1 20:33:46 10° NNW 20:36:54 35° NE 20:39:40 12° ESE visible
14 Oct -1.6 22:10:30 10° W 22:12:39 27° WSW 22:12:39 27° WSW visible
